Eagle Lake, FL

5:01 PM EDT on September 27, 2016 (GMT -0400)
Bartow Municipal

Weather History for KBOW - March, 2014

Change the Weather History Date:

Wednesday, March 5, 2014

  Actual Average Record
Temperature  
Mean Temperature 68 °F -  
Max Temperature 78 °F 79 °F 89 °F (1932)
Min Temperature 59 °F 55 °F 35 °F (2013)
Cooling Degree Days 4    
Growing Degree Days 18 (Base 50)    
Moisture  
Dew Point 61 °F    
Average Humidity 80    
Maximum Humidity 100    
Minimum Humidity 51    
Precipitation  
Precipitation 0.00 in - - ()
Sea Level Pressure  
Sea Level Pressure 30.02 in    
Wind  
Wind Speed 6 mph (NE)    
Max Wind Speed 10 mph    
Max Gust Speed -    
Visibility 8 miles    
Events Fog    
Averages and records for this station are not official NWS values.
T = Trace of Precipitation, MM = Missing Value Source: NWS Daily Summary

Daily Weather History Graph

Daily Weather History Graph

Search for Another Location

Airport or City:

Trip Planner

Search our weather history database for the weather conditions in past years. The results will help you decide how hot, cold, wet, or windy it might be!

Date:

Astronomy

Mar. 05, 2014 Rise Set
Actual Time 6:47 AM EST 6:29 PM EST
Civil Twilight 6:24 AM EST 6:53 PM EST
Nautical Twilight 5:56 AM EST 7:20 PM EST
Astronomical Twilight 5:29 AM EST 7:47 PM EST
Moon 9:37 AM EST (3/5) 11:09 PM EST (3/5)
Length of Visible Light 12h 29m
Length of Day
11h 42m
Waxing Crescent, 23% of the Moon is Illuminated
Mar 5
Waxing Crescent
Mar 8
First Quarter
Mar 16
Full
Mar 23
Last Quarter
Mar 30
New

Hourly Weather History & Observations

Time (EST) Temp. Dew Point Humidity Pressure Visibility Wind Dir Wind Speed Gust Speed Precip Events Conditions
12:15 AM 62.6 °F 62.6 °F 100% 30.04 in 7.0 mi NE 5.8 mph - N/A   Overcast
12:35 AM 62.6 °F 62.6 °F 100% 30.03 in 7.0 mi East 6.9 mph - N/A   Overcast
12:55 AM 62.6 °F 62.6 °F 100% 30.03 in 7.0 mi NE 4.6 mph - N/A   Overcast
1:15 AM 62.6 °F 62.6 °F 100% 30.02 in 10.0 mi ENE 5.8 mph - N/A   Overcast
1:35 AM 62.6 °F 62.6 °F 100% 30.03 in 10.0 mi East 4.6 mph - N/A   Overcast
1:55 AM 62.6 °F 62.6 °F 100% 30.03 in 10.0 mi NE 5.8 mph - N/A   Overcast
2:15 AM 62.6 °F 62.6 °F 100% 30.02 in 10.0 mi NE 5.8 mph - N/A   Overcast
2:35 AM 62.6 °F 62.6 °F 100% 30.03 in 10.0 mi NNE 4.6 mph - N/A   Overcast
2:55 AM 62.6 °F 62.6 °F 100% 30.03 in 10.0 mi NNE 6.9 mph - N/A   Overcast
3:15 AM 62.6 °F 62.6 °F 100% 30.02 in 10.0 mi NNE 6.9 mph - N/A   Overcast
3:35 AM 60.8 °F 60.8 °F 100% 30.02 in 4.0 mi NE 8.1 mph - N/A   Overcast
3:55 AM 60.8 °F 60.8 °F 100% 30.02 in 5.0 mi NNE 4.6 mph - N/A   Overcast
4:15 AM 60.8 °F 60.8 °F 100% 30.01 in 4.0 mi NE 3.5 mph - N/A   Overcast
4:35 AM 60.8 °F 60.8 °F 100% 30.02 in 3.0 mi NNE 5.8 mph - N/A   Overcast
4:55 AM 60.8 °F 60.8 °F 100% 30.02 in 2.0 mi NE 4.6 mph - N/A   Overcast
5:15 AM 59.0 °F 59.0 °F 100% 30.03 in 1.5 mi NE 3.5 mph - N/A   Overcast
5:35 AM 59.0 °F - N/A% 30.02 in 1.5 mi NE 4.6 mph - N/A   Overcast
5:55 AM 59.0 °F - N/A% 30.03 in 1.2 mi ENE 3.5 mph - N/A   Overcast
6:15 AM 59.0 °F - N/A% 30.03 in 0.8 mi East 4.6 mph - N/A   Overcast
7:47 AM 60.8 °F - N/A% 30.06 in 0.2 mi ESE 3.5 mph - N/A Fog Fog
8:55 AM 60.8 °F - N/A% 30.07 in 1.0 mi Calm Calm - N/A   Overcast
9:47 AM 60.8 °F - N/A% 30.08 in 3.0 mi Calm Calm - N/A   Overcast
10:47 AM 66.2 °F 62.6 °F 88% 30.07 in 10.0 mi Calm Calm - N/A   Mostly Cloudy
11:50 AM 71.6 °F 62.6 °F 73% 30.05 in 10.0 mi Variable 3.5 mph - N/A   Mostly Cloudy
12:50 PM 73.4 °F 62.6 °F 69% 30.02 in 10.0 mi Calm Calm - N/A   Mostly Cloudy
1:47 PM 78.8 °F 60.8 °F 54% 29.99 in 10.0 mi South 8.1 mph - N/A   Scattered Clouds
2:35 PM 78.8 °F 62.6 °F 57% 29.97 in 10.0 mi North 6.9 mph - N/A   Partly Cloudy
2:49 PM 78.8 °F 62.6 °F 57% 29.97 in 10.0 mi NNE 8.1 mph - N/A   Mostly Cloudy
2:55 PM 78.8 °F 62.6 °F 57% 29.97 in 10.0 mi NNW 3.5 mph - N/A   Partly Cloudy
3:15 PM 78.8 °F 60.8 °F 54% 29.96 in 10.0 mi NNW 6.9 mph - N/A   Clear
3:35 PM 78.8 °F 59.0 °F 51% 29.96 in 10.0 mi NW 4.6 mph - N/A   Light Drizzle
3:49 PM 78.8 °F 60.8 °F 54% 29.96 in 10.0 mi NNW 3.5 mph - N/A   Mostly Cloudy
3:55 PM 78.8 °F 60.8 °F 54% 29.96 in 10.0 mi NW 6.9 mph - N/A   Partly Cloudy
4:15 PM 78.8 °F 60.8 °F 54% 29.96 in 10.0 mi North 6.9 mph - N/A   Scattered Clouds
4:35 PM 77.0 °F 60.8 °F 57% 29.96 in 10.0 mi North 8.1 mph - N/A   Scattered Clouds
4:47 PM 77.0 °F 60.8 °F 57% 29.96 in 10.0 mi Variable 5.8 mph - N/A   Mostly Cloudy
4:55 PM 77.0 °F 60.8 °F 57% 29.97 in 10.0 mi North 6.9 mph - N/A   Partly Cloudy
5:15 PM 75.2 °F 60.8 °F 61% 29.97 in 10.0 mi NNE 5.8 mph - N/A   Partly Cloudy
5:35 PM 75.2 °F 60.8 °F 61% 29.98 in 10.0 mi NNW 6.9 mph - N/A   Partly Cloudy
5:55 PM 73.4 °F 60.8 °F 65% 29.99 in 10.0 mi NNW 10.4 mph - N/A   Clear
6:15 PM 71.6 °F 60.8 °F 69% 29.99 in 10.0 mi North 10.4 mph - N/A   Clear
6:35 PM 71.6 °F 60.8 °F 69% 30.00 in 10.0 mi NNW 6.9 mph - N/A   Partly Cloudy
6:55 PM 69.8 °F 60.8 °F 73% 30.00 in 10.0 mi North 6.9 mph - N/A   Scattered Clouds
7:15 PM 69.8 °F 60.8 °F 73% 29.99 in 10.0 mi NNE 5.8 mph - N/A   Clear
7:35 PM 69.8 °F 60.8 °F 73% 30.00 in 10.0 mi NNE 6.9 mph - N/A   Clear
7:55 PM 68.0 °F 60.8 °F 78% 30.01 in 10.0 mi NNE 6.9 mph - N/A   Clear
8:15 PM 68.0 °F 60.8 °F 78% 30.02 in 10.0 mi NNE 6.9 mph - N/A   Clear
8:35 PM 66.2 °F 60.8 °F 83% 30.03 in 10.0 mi NE 4.6 mph - N/A   Clear
8:55 PM 66.2 °F 60.8 °F 83% 30.04 in 10.0 mi East 6.9 mph - N/A   Partly Cloudy
9:15 PM 64.4 °F 60.8 °F 88% 30.04 in 10.0 mi ENE 9.2 mph - N/A   Clear
9:35 PM 64.4 °F 60.8 °F 88% 30.05 in 10.0 mi ENE 8.1 mph - N/A   Clear
9:55 PM 64.4 °F 60.8 °F 88% 30.06 in 10.0 mi NE 5.8 mph - N/A   Clear
10:15 PM 64.4 °F 60.8 °F 88% 30.07 in 10.0 mi ENE 6.9 mph - N/A   Mostly Cloudy
10:35 PM 62.6 °F 60.8 °F 94% 30.06 in 10.0 mi ENE 9.2 mph - N/A   Scattered Clouds
10:55 PM 62.6 °F 60.8 °F 94% 30.06 in 10.0 mi East 5.8 mph - N/A   Clear
11:15 PM 62.6 °F 60.8 °F 94% 30.06 in 10.0 mi NE 6.9 mph - N/A   Clear
11:35 PM 62.6 °F 60.8 °F 94% 30.05 in 10.0 mi ENE 6.9 mph - N/A   Clear
11:55 PM 62.6 °F 60.8 °F 94% 30.04 in 10.0 mi ENE 6.9 mph - N/A   Clear